This is the latest recevied weather packets stored in our database for station/object OK1LPD-6. If no packets are shown the sender has not sent any weather packets the latest 10 day(s).
| Time | Temp. | Humidity | Pressure | Rain* | Wind** | Luminosity | Snow |
|---|---|---|---|---|---|---|---|
| 1787970968 | 16.11° C | 99% | 1015.1 hPa | 0.25 mm | - | - | - |
| 1787970369 | 16.11° C | 98% | 1015.3 hPa | 0.25 mm | - | - | - |
| 1787969781 | 16.11° C | 98% | 1015.5 hPa | 0.25 mm | - | - | - |
| 1787969169 | 16.11° C | 97% | 1015.5 hPa | 0.25 mm | - | - | - |
| 1787968568 | 16.11° C | 97% | 1015.2 hPa | 0 mm | - | - | - |
| 1787967980 | 16.11° C | 96% | 1015.2 hPa | 0.25 mm | - | - | - |
| 1787967368 | 16.11° C | 96% | 1015 hPa | 0.25 mm | - | - | - |
| 1787966769 | 16.11° C | 95% | 1015.2 hPa | 0.25 mm | - | - | - |
| 1787966181 | 16.11° C | 94% | 1014.9 hPa | 1.27 mm | - | - | - |
| 1787965569 | 16.11° C | 93% | 1015.2 hPa | 1.78 mm | - | - | - |
| 1787964969 | 16.11° C | 92% | 1015.8 hPa | 1.78 mm | - | - | - |
| 1787964381 | 16.11° C | 91% | 1016 hPa | 1.52 mm | - | - | - |
| 1787963770 | 16.67° C | 90% | 1016.2 hPa | 1.78 mm | - | - | - |
| 1787963169 | 16.67° C | 90% | 1016.2 hPa | 1.78 mm | - | - | - |
| 1787962582 | 17.22° C | 91% | 1016.8 hPa | 1.27 mm | - | - | - |
| 1787961969 | 18.33° C | 91% | 1017 hPa | 0.51 mm | - | - | - |
| 1787961369 | 18.33° C | 91% | 1016.5 hPa | 0.51 mm | - | - | - |
| 1787960781 | 18.33° C | 91% | 1016.1 hPa | 0.51 mm | - | - | - |
| 1787960170 | 18.33° C | 93% | 1016 hPa | 0.25 mm | - | - | - |
| 1787959570 | 18.33° C | 95% | 1016.1 hPa | 0.25 mm | - | - | - |
| 1787958989 | 18.33° C | 96% | 1015.8 hPa | 0 mm | - | - | - |
| 1787958370 | 18.33° C | 96% | 1015.5 hPa | 0 mm | - | - | - |
| 1787957771 | 18.33° C | 95% | 1015.3 hPa | 0 mm | - | - | - |
| 1787957189 | 18.33° C | 95% | 1015 hPa | 0 mm | - | - | - |
| 1787956571 | 18.89° C | 94% | 1014.6 hPa | 0 mm | - | - | - |
* Rain latest hour (hover to see other rain measurements)
** Current wind speed in m/s (hover to see current wind gust speed)